User: anonymous   Login
Location: Unspecified
(54.0933°N, 18.7813°E)
Time: 13:26:47
(UTC+02:00)
Language:

ISS - Orbit

View from above orbital plane
View from above orbital plane
View from above satellite
View from above satellite

Ground track
Ground track

The orbit data is extracted from the following two-line orbital elements,

1 25544U 98067A   20272.03530981  .00016717  00000-0  10270-3 0  9032
2 25544  51.6425 199.5569 0001535 116.4722 243.6585 15.48765129  7958
Epoch (UTC): 28 September 2020 00:50:50
Eccentricity: 0.0001535
inclination: 51.6425°
perigee height: 419 km
apogee height: 421 km
right ascension of ascending node: 199.5569°
argument of perigee: 116.4722°
revolutions per day: 15.48765129
mean anomaly at epoch: 243.6585°
orbit number at epoch: 795

The dashed part of the orbit path shows where the satellite is in the earth's shadow,  

DLR